Location: Newark
(46.7636°N, 1.8358°W)
Time: 15:02:53
(UTC+00:00)

Vanguard 1 Rocket - Pass Details

Date: 21 October 2019
Orbit: 651 x 4225 km, 34.3° (Epoch: 16 November)

Event Time Altitude Azimuth Distance (km) Brightness Sun altitude
Rises 16:45:55 0° 281° (W) 7,719 13.3 3.2°
Reaches altitude 10° 16:51:45 10° 273° (W) 7,034 13.5 2.2°
Maximum altitude 17:11:26 31° 222° (SW) 5,753 12.2 -1.0°
Drops below altitude 10° 17:30:11 10° 169° (S) 6,607 11.8 -4.1°
Sets 17:35:34 0° 160° (SSE) 7,201 11.9 -5.1°
